iso_date,epoch_date,Year,Hour,Min,DOY,POS_DOY,Lat,Lon,BP,Ts,Ta,has_bp,has_ts,has_ta,BuoyID,Buoy_Type,Buoy_Owner,Logistics,Hemisphere
2021-07-06T18:00:00Z,1625594400,2021,18,0,187.75,187.75,61.844,-8.996,1003.7,10.68,-999.0,yes,yes,no,300234066214670,BD2VHI,AOML,UNKNOWN,North
2021-07-06T21:00:00Z,1625605200,2021,21,0,187.875,187.875,61.829,-9.022,1004.5,10.76,-999.0,yes,yes,no,300234066214670,BD2VHI,AOML,UNKNOWN,North
2021-07-07T00:00:00Z,1625616000,2021,0,0,188.0,188.0,61.794,-9.034,1004.9,10.77,-999.0,yes,yes,no,300234066214670,BD2VHI,AOML,UNKNOWN,North
2021-07-07T03:00:00Z,1625626800,2021,3,0,188.125,188.125,61.739,-9.104,1005.6,10.71,-999.0,yes,yes,no,300234066214670,BD2VHI,AOML,UNKNOWN,North
2021-07-07T06:00:00Z,1625637600,2021,6,0,188.25,188.25,61.719,-9.199,1006.7,10.49,-999.0,yes,yes,no,300234066214670,BD2VHI,AOML,UNKNOWN,North
2021-07-07T09:00:00Z,1625648400,2021,9,0,188.375,188.375,61.703,-9.208,1008.4,10.62,-999.0,yes,yes,no,300234066214670,BD2VHI,AOML,UNKNOWN,North
2021-07-07T12:00:00Z,1625659200,2021,12,0,188.5,188.5,61.66,-9.247,1010.3,10.66,-999.0,yes,yes,no,300234066214670,BD2VHI,AOML,UNKNOWN,North
2021-07-07T15:00:00Z,1625670000,2021,15,0,188.625,188.625,61.633,-9.301,1011.1,10.71,-999.0,yes,yes,no,300234066214670,BD2VHI,AOML,UNKNOWN,North
2021-07-07T18:00:00Z,1625680800,2021,18,0,188.75,188.75,61.635,-9.311,1012.2,10.77,-999.0,yes,yes,no,300234066214670,BD2VHI,AOML,UNKNOWN,North
2021-07-07T21:00:00Z,1625691600,2021,21,0,188.875,188.875,61.63,-9.267,1013.4,10.79,-999.0,yes,yes,no,300234066214670,BD2VHI,AOML,UNKNOWN,North
2021-07-08T00:00:00Z,1625702400,2021,0,0,189.0,189.0,61.621,-9.236,1014.1,10.98,-999.0,yes,yes,no,300234066214670,BD2VHI,AOML,UNKNOWN,North
2021-07-08T03:00:00Z,1625713200,2021,3,0,189.125,189.125,61.609,-9.206,1014.3,11.07,-999.0,yes,yes,no,300234066214670,BD2VHI,AOML,UNKNOWN,North
2021-07-08T06:00:00Z,1625724000,2021,6,0,189.25,189.25,61.605,-9.173,1014.9,10.93,-999.0,yes,yes,no,300234066214670,BD2VHI,AOML,UNKNOWN,North
2021-07-08T09:00:00Z,1625734800,2021,9,0,189.375,189.375,61.618,-9.079,1016.2,11.01,-999.0,yes,yes,no,300234066214670,BD2VHI,AOML,UNKNOWN,North
2021-07-08T12:00:00Z,1625745600,2021,12,0,189.5,189.5,61.608,-8.978,1017.7,11.21,-999.0,yes,yes,no,300234066214670,BD2VHI,AOML,UNKNOWN,North
2021-07-08T15:00:00Z,1625756400,2021,15,0,189.625,189.625,61.595,-8.905,1018.4,11.37,-999.0,yes,yes,no,300234066214670,BD2VHI,AOML,UNKNOWN,North
2021-07-08T18:00:00Z,1625767200,2021,18,0,189.75,189.75,61.615,-8.863,1018.8,11.25,-999.0,yes,yes,no,300234066214670,BD2VHI,AOML,UNKNOWN,North
2021-07-08T21:00:00Z,1625778000,2021,21,0,189.875,189.875,61.655,-8.792,1020.1,11.33,-999.0,yes,yes,no,300234066214670,BD2VHI,AOML,UNKNOWN,North
2021-07-09T00:00:00Z,1625788800,2021,0,0,190.0,190.0,61.673,-8.734,1020.9,11.2,-999.0,yes,yes,no,300234066214670,BD2VHI,AOML,UNKNOWN,North
2021-07-09T03:00:00Z,1625799600,2021,3,0,190.125,190.125,61.675,-8.753,1020.8,11.1,-999.0,yes,yes,no,300234066214670,BD2VHI,AOML,UNKNOWN,North
2021-07-09T06:00:00Z,1625810400,2021,6,0,190.25,190.25,61.711,-8.76,1021.3,11.02,-999.0,yes,yes,no,300234066214670,BD2VHI,AOML,UNKNOWN,North
2021-07-09T09:00:00Z,1625821200,2021,9,0,190.375,190.375,61.749,-8.721,1021.7,11.08,-999.0,yes,yes,no,300234066214670,BD2VHI,AOML,UNKNOWN,North
2021-07-09T12:00:00Z,1625832000,2021,12,0,190.5,190.5,61.763,-8.684,1021.9,11.31,-999.0,yes,yes,no,300234066214670,BD2VHI,AOML,UNKNOWN,North
2021-07-09T15:00:00Z,1625842800,2021,15,0,190.625,190.625,61.762,-8.663,1021.8,11.8,-999.0,yes,yes,no,300234066214670,BD2VHI,AOML,UNKNOWN,North
2021-07-09T18:00:00Z,1625853600,2021,18,0,190.75,190.75,61.774,-8.664,1021.4,11.34,-999.0,yes,yes,no,300234066214670,BD2VHI,AOML,UNKNOWN,North
2021-07-09T21:00:00Z,1625864400,2021,21,0,190.875,190.875,61.811,-8.624,1021.6,11.28,-999.0,yes,yes,no,300234066214670,BD2VHI,AOML,UNKNOWN,North
2021-07-10T00:00:00Z,1625875200,2021,0,0,191.0,191.0,61.807,-8.569,1021.1,11.23,-999.0,yes,yes,no,300234066214670,BD2VHI,AOML,UNKNOWN,North
2021-07-10T03:00:00Z,1625886000,2021,3,0,191.125,191.125,61.766,-8.595,1020.3,10.97,-999.0,yes,yes,no,300234066214670,BD2VHI,AOML,UNKNOWN,North
2021-07-10T06:00:00Z,1625896800,2021,6,0,191.25,191.25,61.751,-8.633,1019.8,11.05,-999.0,yes,yes,no,300234066214670,BD2VHI,AOML,UNKNOWN,North
2021-07-10T09:00:00Z,1625907600,2021,9,0,191.375,191.375,61.765,-8.681,1019.7,11.03,-999.0,yes,yes,no,300234066214670,BD2VHI,AOML,UNKNOWN,North
2021-07-10T12:00:00Z,1625918400,2021,12,0,191.5,191.5,61.78,-8.652,1019.1,11.34,-999.0,yes,yes,no,300234066214670,BD2VHI,AOML,UNKNOWN,North
2021-07-10T15:00:00Z,1625929200,2021,15,0,191.625,191.625,61.744,-8.618,1018.3,11.25,-999.0,yes,yes,no,300234066214670,BD2VHI,AOML,UNKNOWN,North
2021-07-10T18:00:00Z,1625940000,2021,18,0,191.75,191.75,61.712,-8.664,1017.4,11.38,-999.0,yes,yes,no,300234066214670,BD2VHI,AOML,UNKNOWN,North
2021-07-10T21:00:00Z,1625950800,2021,21,0,191.875,191.875,61.73,-8.716,1017.2,11.32,-999.0,yes,yes,no,300234066214670,BD2VHI,AOML,UNKNOWN,North
2021-07-11T00:00:00Z,1625961600,2021,0,0,192.0,192.0,61.743,-8.696,1016.8,11.28,-999.0,yes,yes,no,300234066214670,BD2VHI,AOML,UNKNOWN,North
2021-07-11T03:00:00Z,1625972400,2021,3,0,192.125,192.125,61.707,-8.684,1015.9,11.27,-999.0,yes,yes,no,300234066214670,BD2VHI,AOML,UNKNOWN,North
2021-07-11T06:00:00Z,1625983200,2021,6,0,192.25,192.25,61.665,-8.73,1015.3,11.24,-999.0,yes,yes,no,300234066214670,BD2VHI,AOML,UNKNOWN,North
2021-07-11T09:00:00Z,1625994000,2021,9,0,192.375,192.375,61.654,-8.804,1015.4,11.21,-999.0,yes,yes,no,300234066214670,BD2VHI,AOML,UNKNOWN,North
2021-07-11T12:00:00Z,1626004800,2021,12,0,192.5,192.5,61.653,-8.836,1015.8,11.29,-999.0,yes,yes,no,300234066214670,BD2VHI,AOML,UNKNOWN,North
2021-07-11T15:00:00Z,1626015600,2021,15,0,192.625,192.625,61.63,-8.845,1015.8,11.43,-999.0,yes,yes,no,300234066214670,BD2VHI,AOML,UNKNOWN,North
2021-07-11T18:00:00Z,1626026400,2021,18,0,192.75,192.75,61.602,-8.877,1015.6,11.62,-999.0,yes,yes,no,300234066214670,BD2VHI,AOML,UNKNOWN,North
2021-07-11T21:00:00Z,1626037200,2021,21,0,192.875,192.875,61.597,-8.901,1016.2,11.66,-999.0,yes,yes,no,300234066214670,BD2VHI,AOML,UNKNOWN,North
2021-07-12T00:00:00Z,1626048000,2021,0,0,193.0,193.0,61.597,-8.893,1016.2,11.56,-999.0,yes,yes,no,300234066214670,BD2VHI,AOML,UNKNOWN,North
2021-07-12T03:00:00Z,1626058800,2021,3,0,193.125,193.125,61.58,-8.857,1016.0,11.54,-999.0,yes,yes,no,300234066214670,BD2VHI,AOML,UNKNOWN,North
2021-07-12T06:00:00Z,1626069600,2021,6,0,193.25,193.25,61.553,-8.833,1015.8,11.44,-999.0,yes,yes,no,300234066214670,BD2VHI,AOML,UNKNOWN,North
2021-07-12T09:00:00Z,1626080400,2021,9,0,193.375,193.375,61.565,-8.801,1016.4,11.37,-999.0,yes,yes,no,300234066214670,BD2VHI,AOML,UNKNOWN,North
2021-07-12T12:00:00Z,1626091200,2021,12,0,193.5,193.5,61.588,-8.722,1016.5,11.52,-999.0,yes,yes,no,300234066214670,BD2VHI,AOML,UNKNOWN,North
2021-07-12T15:00:00Z,1626102000,2021,15,0,193.625,193.625,61.58,-8.65,1016.8,11.78,-999.0,yes,yes,no,300234066214670,BD2VHI,AOML,UNKNOWN,North
2021-07-12T18:00:00Z,1626112800,2021,18,0,193.75,193.75,61.574,-8.662,1017.2,11.15,-999.0,yes,yes,no,300234066214670,BD2VHI,AOML,UNKNOWN,North
2021-07-12T21:00:00Z,1626123600,2021,21,0,193.875,193.875,61.618,-8.649,1017.5,11.61,-999.0,yes,yes,no,300234066214670,BD2VHI,AOML,UNKNOWN,North
2021-07-13T00:00:00Z,1626134400,2021,0,0,194.0,194.0,61.651,-8.605,1017.6,11.28,-999.0,yes,yes,no,300234066214670,BD2VHI,AOML,UNKNOWN,North
2021-07-13T03:00:00Z,1626145200,2021,3,0,194.125,194.125,61.652,-8.579,1017.7,11.29,-999.0,yes,yes,no,300234066214670,BD2VHI,AOML,UNKNOWN,North
2021-07-13T06:00:00Z,1626156000,2021,6,0,194.25,194.25,61.651,-8.596,1017.5,11.22,-999.0,yes,yes,no,300234066214670,BD2VHI,AOML,UNKNOWN,North
2021-07-13T09:00:00Z,1626166800,2021,9,0,194.375,194.375,61.675,-8.62,1018.0,11.24,-999.0,yes,yes,no,300234066214670,BD2VHI,AOML,UNKNOWN,North
2021-07-13T12:00:00Z,1626177600,2021,12,0,194.5,194.5,61.714,-8.583,1018.1,11.18,-999.0,yes,yes,no,300234066214670,BD2VHI,AOML,UNKNOWN,North
2021-07-13T15:00:00Z,1626188400,2021,15,0,194.625,194.625,61.713,-8.522,1018.1,11.28,-999.0,yes,yes,no,300234066214670,BD2VHI,AOML,UNKNOWN,North
2021-07-13T18:00:00Z,1626199200,2021,18,0,194.75,194.75,61.693,-8.53,1017.5,11.11,-999.0,yes,yes,no,300234066214670,BD2VHI,AOML,UNKNOWN,North
2021-07-13T21:00:00Z,1626210000,2021,21,0,194.875,194.875,61.707,-8.538,1016.9,10.99,-999.0,yes,yes,no,300234066214670,BD2VHI,AOML,UNKNOWN,North
2021-07-14T00:00:00Z,1626220800,2021,0,0,195.0,195.0,61.724,-8.508,1016.4,11.08,-999.0,yes,yes,no,300234066214670,BD2VHI,AOML,UNKNOWN,North
2021-07-14T03:00:00Z,1626231600,2021,3,0,195.125,195.125,61.712,-8.483,1015.1,11.05,-999.0,yes,yes,no,300234066214670,BD2VHI,AOML,UNKNOWN,North
2021-07-14T06:00:00Z,1626242400,2021,6,0,195.25,195.25,61.703,-8.488,1013.2,10.92,-999.0,yes,yes,no,300234066214670,BD2VHI,AOML,UNKNOWN,North
2021-07-14T09:00:00Z,1626253200,2021,9,0,195.375,195.375,61.717,-8.482,1010.9,10.7,-999.0,yes,yes,no,300234066214670,BD2VHI,AOML,UNKNOWN,North
2021-07-14T12:00:00Z,1626264000,2021,12,0,195.5,195.5,61.762,-8.44,1007.2,10.78,-999.0,yes,yes,no,300234066214670,BD2VHI,AOML,UNKNOWN,North
2021-07-14T15:00:00Z,1626274800,2021,15,0,195.625,195.625,61.794,-8.372,1003.4,10.22,-999.0,yes,yes,no,300234066214670,BD2VHI,AOML,UNKNOWN,North
2021-07-14T18:00:00Z,1626285600,2021,18,0,195.75,195.75,61.788,-8.339,1004.8,10.26,-999.0,yes,yes,no,300234066214670,BD2VHI,AOML,UNKNOWN,North
2021-07-14T21:00:00Z,1626296400,2021,21,0,195.875,195.875,61.794,-8.324,1009.5,10.4,-999.0,yes,yes,no,300234066214670,BD2VHI,AOML,UNKNOWN,North
2021-07-15T00:00:00Z,1626307200,2021,0,0,196.0,196.0,61.824,-8.255,1011.1,10.34,-999.0,yes,yes,no,300234066214670,BD2VHI,AOML,UNKNOWN,North
2021-07-15T03:00:00Z,1626318000,2021,3,0,196.125,196.125,61.814,-8.178,1013.4,10.15,-999.0,yes,yes,no,300234066214670,BD2VHI,AOML,UNKNOWN,North
2021-07-15T06:00:00Z,1626328800,2021,6,0,196.25,196.25,61.791,-8.157,1015.1,9.94,-999.0,yes,yes,no,300234066214670,BD2VHI,AOML,UNKNOWN,North
2021-07-15T09:00:00Z,1626339600,2021,9,0,196.375,196.375,61.803,-8.148,1017.1,9.59,-999.0,yes,yes,no,300234066214670,BD2VHI,AOML,UNKNOWN,North
2021-07-15T12:00:00Z,1626350400,2021,12,0,196.5,196.5,61.849,-8.127,1018.0,9.9,-999.0,yes,yes,no,300234066214670,BD2VHI,AOML,UNKNOWN,North
2021-07-15T15:00:00Z,1626361200,2021,15,0,196.625,196.625,61.874,-8.092,1017.3,9.77,-999.0,yes,yes,no,300234066214670,BD2VHI,AOML,UNKNOWN,North
2021-07-15T18:00:00Z,1626372000,2021,18,0,196.75,196.75,61.876,-8.087,1015.1,9.83,-999.0,yes,yes,no,300234066214670,BD2VHI,AOML,UNKNOWN,North
2021-07-15T21:00:00Z,1626382800,2021,21,0,196.875,196.875,61.9,-8.097,1013.7,9.94,-999.0,yes,yes,no,300234066214670,BD2VHI,AOML,UNKNOWN,North
2021-07-16T00:00:00Z,1626393600,2021,0,0,197.0,197.0,61.947,-8.058,1013.7,9.78,-999.0,yes,yes,no,300234066214670,BD2VHI,AOML,UNKNOWN,North
2021-07-16T03:00:00Z,1626404400,2021,3,0,197.125,197.125,61.958,-7.991,1013.3,9.9,-999.0,yes,yes,no,300234066214670,BD2VHI,AOML,UNKNOWN,North
2021-07-16T06:00:00Z,1626415200,2021,6,0,197.25,197.25,61.931,-7.983,1012.8,9.86,-999.0,yes,yes,no,300234066214670,BD2VHI,AOML,UNKNOWN,North
2021-07-16T09:00:00Z,1626426000,2021,9,0,197.375,197.375,61.946,-7.999,1012.5,9.65,-999.0,yes,yes,no,300234066214670,BD2VHI,AOML,UNKNOWN,North
2021-07-16T12:00:00Z,1626436800,2021,12,0,197.5,197.5,62.019,-7.972,1012.6,9.68,-999.0,yes,yes,no,300234066214670,BD2VHI,AOML,UNKNOWN,North
2021-07-16T15:00:00Z,1626447600,2021,15,0,197.625,197.625,62.082,-7.85,1013.6,9.23,-999.0,yes,yes,no,300234066214670,BD2VHI,AOML,UNKNOWN,North
2021-07-16T18:00:00Z,1626458400,2021,18,0,197.75,197.75,62.03,-7.762,1014.3,9.41,-999.0,yes,yes,no,300234066214670,BD2VHI,AOML,UNKNOWN,North
2021-07-16T21:00:00Z,1626469200,2021,21,0,197.875,197.875,62.013,-7.704,1014.7,9.29,-999.0,yes,yes,no,300234066214670,BD2VHI,AOML,UNKNOWN,North
2021-07-17T00:00:00Z,1626480000,2021,0,0,198.0,198.0,62.125,-7.772,1013.7,9.54,-999.0,yes,yes,no,300234066214670,BD2VHI,AOML,UNKNOWN,North
2021-07-17T03:00:00Z,1626490800,2021,3,0,198.125,198.125,62.219,-7.609,1012.2,9.13,-999.0,yes,yes,no,300234066214670,BD2VHI,AOML,UNKNOWN,North
2021-07-17T06:00:00Z,1626501600,2021,6,0,198.25,198.25,62.179,-7.552,1012.1,9.12,-999.0,yes,yes,no,300234066214670,BD2VHI,AOML,UNKNOWN,North
2021-07-17T09:00:00Z,1626512400,2021,9,0,198.375,198.375,62.132,-7.686,1014.0,9.13,-999.0,yes,yes,no,300234066214670,BD2VHI,AOML,UNKNOWN,North
2021-07-17T12:00:00Z,1626523200,2021,12,0,198.5,198.5,62.144,-7.646,1015.4,9.19,-999.0,yes,yes,no,300234066214670,BD2VHI,AOML,UNKNOWN,North
2021-07-17T15:00:00Z,1626534000,2021,15,0,198.625,198.625,62.128,-7.538,1017.3,9.16,-999.0,yes,yes,no,300234066214670,BD2VHI,AOML,UNKNOWN,North
2021-07-17T18:00:00Z,1626544800,2021,18,0,198.75,198.75,62.019,-7.517,1019.2,9.3,-999.0,yes,yes,no,300234066214670,BD2VHI,AOML,UNKNOWN,North
2021-07-17T21:00:00Z,1626555600,2021,21,0,198.875,198.875,61.99,-7.603,1020.6,9.28,-999.0,yes,yes,no,300234066214670,BD2VHI,AOML,UNKNOWN,North
2021-07-18T00:00:00Z,1626566400,2021,0,0,199.0,199.0,62.027,-7.674,1021.0,9.33,-999.0,yes,yes,no,300234066214670,BD2VHI,AOML,UNKNOWN,North
2021-07-18T03:00:00Z,1626577200,2021,3,0,199.125,199.125,62.06,-7.719,1021.3,9.33,-999.0,yes,yes,no,300234066214670,BD2VHI,AOML,UNKNOWN,North
2021-07-18T06:00:00Z,1626588000,2021,6,0,199.25,199.25,62.033,-7.674,1021.8,9.32,-999.0,yes,yes,no,300234066214670,BD2VHI,AOML,UNKNOWN,North
2021-07-18T09:00:00Z,1626598800,2021,9,0,199.375,199.375,62.047,-7.652,1022.5,9.35,-999.0,yes,yes,no,300234066214670,BD2VHI,AOML,UNKNOWN,North
2021-07-18T12:00:00Z,1626609600,2021,12,0,199.5,199.5,62.141,-7.787,1022.6,9.3,-999.0,yes,yes,no,300234066214670,BD2VHI,AOML,UNKNOWN,North
2021-07-18T15:00:00Z,1626620400,2021,15,0,199.625,199.625,62.233,-7.646,1022.6,9.29,-999.0,yes,yes,no,300234066214670,BD2VHI,AOML,UNKNOWN,North
2021-07-18T18:00:00Z,1626631200,2021,18,0,199.75,199.75,62.24,-7.49,1021.9,9.21,-999.0,yes,yes,no,300234066214670,BD2VHI,AOML,UNKNOWN,North
2021-07-18T21:00:00Z,1626642000,2021,21,0,199.875,199.875,62.211,-7.473,1021.3,9.24,-999.0,yes,yes,no,300234066214670,BD2VHI,AOML,UNKNOWN,North
2021-07-19T00:00:00Z,1626652800,2021,0,0,200.0,200.0,62.209,-7.495,1020.5,9.26,-999.0,yes,yes,no,300234066214670,BD2VHI,AOML,UNKNOWN,North
2021-07-19T03:00:00Z,1626663600,2021,3,0,200.125,200.125,62.251,-7.442,1018.9,9.24,-999.0,yes,yes,no,300234066214670,BD2VHI,AOML,UNKNOWN,North
2021-07-19T06:00:00Z,1626674400,2021,6,0,200.25,200.25,62.285,-7.348,1017.5,9.19,-999.0,yes,yes,no,300234066214670,BD2VHI,AOML,UNKNOWN,North
2021-07-19T09:00:00Z,1626685200,2021,9,0,200.375,200.375,62.251,-7.358,1017.5,9.2,-999.0,yes,yes,no,300234066214670,BD2VHI,AOML,UNKNOWN,North
2021-07-19T12:00:00Z,1626696000,2021,12,0,200.5,200.5,62.222,-7.427,1017.9,9.34,-999.0,yes,yes,no,300234066214670,BD2VHI,AOML,UNKNOWN,North
2021-07-19T15:00:00Z,1626706800,2021,15,0,200.625,200.625,62.257,-7.428,1018.6,9.45,-999.0,yes,yes,no,300234066214670,BD2VHI,AOML,UNKNOWN,North
2021-07-19T18:00:00Z,1626717600,2021,18,0,200.75,200.75,62.322,-7.339,1018.5,9.38,-999.0,yes,yes,no,300234066214670,BD2VHI,AOML,UNKNOWN,North
2021-07-19T21:00:00Z,1626728400,2021,21,0,200.875,200.875,62.351,-7.257,1019.5,9.36,-999.0,yes,yes,no,300234066214670,BD2VHI,AOML,UNKNOWN,North
2021-07-20T00:00:00Z,1626739200,2021,0,0,201.0,201.0,62.333,-7.253,1019.8,9.34,-999.0,yes,yes,no,300234066214670,BD2VHI,AOML,UNKNOWN,North
2021-07-20T03:00:00Z,1626750000,2021,3,0,201.125,201.125,62.338,-7.192,1020.1,9.3,-999.0,yes,yes,no,300234066214670,BD2VHI,AOML,UNKNOWN,North
2021-07-20T06:00:00Z,1626760800,2021,6,0,201.25,201.25,62.351,-6.988,1020.2,9.27,-999.0,yes,yes,no,300234066214670,BD2VHI,AOML,UNKNOWN,North
2021-07-20T09:00:00Z,1626771600,2021,9,0,201.375,201.375,62.33,-6.861,1021.2,9.27,-999.0,yes,yes,no,300234066214670,BD2VHI,AOML,UNKNOWN,North
2021-07-20T12:00:00Z,1626782400,2021,12,0,201.5,201.5,62.327,-6.899,1021.5,9.63,-999.0,yes,yes,no,300234066214670,BD2VHI,AOML,UNKNOWN,North
2021-07-20T15:00:00Z,1626793200,2021,15,0,201.625,201.625,62.339,-6.957,1021.8,10.23,-999.0,yes,yes,no,300234066214670,BD2VHI,AOML,UNKNOWN,North
2021-07-20T18:00:00Z,1626804000,2021,18,0,201.75,201.75,62.323,-6.927,1021.7,9.47,-999.0,yes,yes,no,300234066214670,BD2VHI,AOML,UNKNOWN,North
2021-07-20T21:00:00Z,1626814800,2021,21,0,201.875,201.875,62.341,-6.959,1021.5,9.7,-999.0,yes,yes,no,300234066214670,BD2VHI,AOML,UNKNOWN,North
2021-07-21T00:00:00Z,1626825600,2021,0,0,202.0,202.0,62.343,-7.044,1021.1,9.33,-999.0,yes,yes,no,300234066214670,BD2VHI,AOML,UNKNOWN,North
2021-07-21T03:00:00Z,1626836400,2021,3,0,202.125,202.125,62.339,-7.07,1020.2,9.31,-999.0,yes,yes,no,300234066214670,BD2VHI,AOML,UNKNOWN,North
2021-07-21T06:00:00Z,1626847200,2021,6,0,202.25,202.25,62.348,-6.927,1019.7,9.32,-999.0,yes,yes,no,300234066214670,BD2VHI,AOML,UNKNOWN,North
2021-07-21T09:00:00Z,1626858000,2021,9,0,202.375,202.375,62.325,-6.875,1019.3,9.38,-999.0,yes,yes,no,300234066214670,BD2VHI,AOML,UNKNOWN,North
2021-07-21T12:00:00Z,1626868800,2021,12,0,202.5,202.5,62.33,-6.879,1019.4,9.49,-999.0,yes,yes,no,300234066214670,BD2VHI,AOML,UNKNOWN,North
2021-07-21T15:00:00Z,1626879600,2021,15,0,202.625,202.625,62.341,-6.885,1020.4,9.7,-999.0,yes,yes,no,300234066214670,BD2VHI,AOML,UNKNOWN,North
2021-07-21T18:00:00Z,1626890400,2021,18,0,202.75,202.75,62.349,-6.831,1020.8,9.7,-999.0,yes,yes,no,300234066214670,BD2VHI,AOML,UNKNOWN,North
2021-07-21T21:00:00Z,1626901200,2021,21,0,202.875,202.875,62.313,-6.793,1020.9,9.48,-999.0,yes,yes,no,300234066214670,BD2VHI,AOML,UNKNOWN,North
2021-07-22T00:00:00Z,1626912000,2021,0,0,203.0,203.0,62.277,-6.787,1021.7,9.49,-999.0,yes,yes,no,300234066214670,BD2VHI,AOML,UNKNOWN,North
2021-07-22T03:00:00Z,1626922800,2021,3,0,203.125,203.125,62.28,-6.832,1022.5,9.53,-999.0,yes,yes,no,300234066214670,BD2VHI,AOML,UNKNOWN,North
2021-07-22T06:00:00Z,1626933600,2021,6,0,203.25,203.25,62.276,-6.839,1023.2,9.5,-999.0,yes,yes,no,300234066214670,BD2VHI,AOML,UNKNOWN,North
2021-07-22T09:00:00Z,1626944400,2021,9,0,203.375,203.375,62.274,-6.832,1024.1,9.77,-999.0,yes,yes,no,300234066214670,BD2VHI,AOML,UNKNOWN,North
2021-07-22T12:00:00Z,1626955200,2021,12,0,203.5,203.5,62.28,-6.828,1024.8,9.84,-999.0,yes,yes,no,300234066214670,BD2VHI,AOML,UNKNOWN,North
2021-07-22T15:00:00Z,1626966000,2021,15,0,203.625,203.625,62.304,-6.881,1024.6,9.65,-999.0,yes,yes,no,300234066214670,BD2VHI,AOML,UNKNOWN,North
2021-07-22T18:00:00Z,1626976800,2021,18,0,203.75,203.75,62.305,-6.912,1023.8,10.89,-999.0,yes,yes,no,300234066214670,BD2VHI,AOML,UNKNOWN,North
2021-07-22T21:00:00Z,1626987600,2021,21,0,203.875,203.875,62.302,-6.88,1023.4,9.77,-999.0,yes,yes,no,300234066214670,BD2VHI,AOML,UNKNOWN,North
2021-07-23T00:00:00Z,1626998400,2021,0,0,204.0,204.0,62.295,-6.914,1022.4,9.44,-999.0,yes,yes,no,300234066214670,BD2VHI,AOML,UNKNOWN,North
2021-07-23T03:00:00Z,1627009200,2021,3,0,204.125,204.125,62.328,-6.901,1021.8,9.46,-999.0,yes,yes,no,300234066214670,BD2VHI,AOML,UNKNOWN,North
2021-07-23T06:00:00Z,1627020000,2021,6,0,204.25,204.25,62.357,-6.912,1020.1,9.36,-999.0,yes,yes,no,300234066214670,BD2VHI,AOML,UNKNOWN,North
2021-07-23T09:00:00Z,1627030800,2021,9,0,204.375,204.375,62.395,-6.784,1019.6,9.43,-999.0,yes,yes,no,300234066214670,BD2VHI,AOML,UNKNOWN,North
2021-07-23T12:00:00Z,1627041600,2021,12,0,204.5,204.5,62.392,-6.649,1018.9,9.45,-999.0,yes,yes,no,300234066214670,BD2VHI,AOML,UNKNOWN,North
2021-07-23T15:00:00Z,1627052400,2021,15,0,204.625,204.625,62.397,-6.72,1018.5,9.59,-999.0,yes,yes,no,300234066214670,BD2VHI,AOML,UNKNOWN,North
2021-07-23T18:00:00Z,1627063200,2021,18,0,204.75,204.75,62.424,-6.851,1017.3,9.71,-999.0,yes,yes,no,300234066214670,BD2VHI,AOML,UNKNOWN,North
2021-07-23T21:00:00Z,1627074000,2021,21,0,204.875,204.875,62.468,-6.806,1016.9,9.75,-999.0,yes,yes,no,300234066214670,BD2VHI,AOML,UNKNOWN,North
2021-07-24T00:00:00Z,1627084800,2021,0,0,205.0,205.0,62.484,-6.626,1016.3,9.57,-999.0,yes,yes,no,300234066214670,BD2VHI,AOML,UNKNOWN,North
2021-07-24T03:00:00Z,1627095600,2021,3,0,205.125,205.125,62.47,-6.616,1015.0,9.45,-999.0,yes,yes,no,300234066214670,BD2VHI,AOML,UNKNOWN,North
2021-07-24T06:00:00Z,1627106400,2021,6,0,205.25,205.25,62.476,-6.704,1014.5,9.43,-999.0,yes,yes,no,300234066214670,BD2VHI,AOML,UNKNOWN,North
2021-07-24T09:00:00Z,1627117200,2021,9,0,205.375,205.375,62.511,-6.668,1013.3,9.67,-999.0,yes,yes,no,300234066214670,BD2VHI,AOML,UNKNOWN,North
2021-07-24T12:00:00Z,1627128000,2021,12,0,205.5,205.5,62.526,-6.486,1012.7,9.96,-999.0,yes,yes,no,300234066214670,BD2VHI,AOML,UNKNOWN,North
2021-07-24T15:00:00Z,1627138800,2021,15,0,205.625,205.625,62.511,-6.413,1012.1,9.88,-999.0,yes,yes,no,300234066214670,BD2VHI,AOML,UNKNOWN,North
2021-07-24T18:00:00Z,1627149600,2021,18,0,205.75,205.75,62.531,-6.495,1011.4,9.85,-999.0,yes,yes,no,300234066214670,BD2VHI,AOML,UNKNOWN,North
2021-07-24T21:00:00Z,1627160400,2021,21,0,205.875,205.875,62.555,-6.496,1012.1,9.98,-999.0,yes,yes,no,300234066214670,BD2VHI,AOML,UNKNOWN,North
2021-07-25T00:00:00Z,1627171200,2021,0,0,206.0,206.0,62.535,-6.383,1012.2,9.77,-999.0,yes,yes,no,300234066214670,BD2VHI,AOML,UNKNOWN,North
2021-07-25T03:00:00Z,1627182000,2021,3,0,206.125,206.125,62.49,-6.312,1012.7,9.73,-999.0,yes,yes,no,300234066214670,BD2VHI,AOML,UNKNOWN,North
2021-07-25T06:00:00Z,1627192800,2021,6,0,206.25,206.25,62.492,-6.424,1013.0,9.71,-999.0,yes,yes,no,300234066214670,BD2VHI,AOML,UNKNOWN,North
2021-07-25T09:00:00Z,1627203600,2021,9,0,206.375,206.375,62.538,-6.48,1013.4,9.75,-999.0,yes,yes,no,300234066214670,BD2VHI,AOML,UNKNOWN,North
2021-07-25T12:00:00Z,1627214400,2021,12,0,206.5,206.5,62.549,-6.341,1013.2,10.79,-999.0,yes,yes,no,300234066214670,BD2VHI,AOML,UNKNOWN,North
2021-07-25T15:00:00Z,1627225200,2021,15,0,206.625,206.625,62.514,-6.224,1013.6,9.95,-999.0,yes,yes,no,300234066214670,BD2VHI,AOML,UNKNOWN,North
2021-07-25T18:00:00Z,1627236000,2021,18,0,206.75,206.75,62.512,-6.253,1013.7,10.03,-999.0,yes,yes,no,300234066214670,BD2VHI,AOML,UNKNOWN,North
2021-07-25T21:00:00Z,1627246800,2021,21,0,206.875,206.875,62.541,-6.285,1013.7,10.78,-999.0,yes,yes,no,300234066214670,BD2VHI,AOML,UNKNOWN,North
2021-07-26T00:00:00Z,1627257600,2021,0,0,207.0,207.0,62.567,-6.195,1013.6,10.88,-999.0,yes,yes,no,300234066214670,BD2VHI,AOML,UNKNOWN,North
2021-07-26T03:00:00Z,1627268400,2021,3,0,207.125,207.125,62.542,-6.059,1013.5,10.95,-999.0,yes,yes,no,300234066214670,BD2VHI,AOML,UNKNOWN,North
2021-07-26T06:00:00Z,1627279200,2021,6,0,207.25,207.25,62.519,-6.076,1013.1,10.89,-999.0,yes,yes,no,300234066214670,BD2VHI,AOML,UNKNOWN,North
2021-07-26T09:00:00Z,1627290000,2021,9,0,207.375,207.375,62.548,-6.154,1012.9,11.1,-999.0,yes,yes,no,300234066214670,BD2VHI,AOML,UNKNOWN,North
2021-07-26T12:00:00Z,1627300800,2021,12,0,207.5,207.5,62.578,-6.121,1012.8,11.39,-999.0,yes,yes,no,300234066214670,BD2VHI,AOML,UNKNOWN,North
2021-07-26T15:00:00Z,1627311600,2021,15,0,207.625,207.625,62.555,-6.036,1012.0,11.5,-999.0,yes,yes,no,300234066214670,BD2VHI,AOML,UNKNOWN,North
2021-07-26T18:00:00Z,1627322400,2021,18,0,207.75,207.75,62.513,-6.071,1011.1,11.4,-999.0,yes,yes,no,300234066214670,BD2VHI,AOML,UNKNOWN,North
2021-07-26T21:00:00Z,1627333200,2021,21,0,207.875,207.875,62.531,-6.175,1010.2,11.19,-999.0,yes,yes,no,300234066214670,BD2VHI,AOML,UNKNOWN,North
2021-07-27T00:00:00Z,1627344000,2021,0,0,208.0,208.0,62.55,-6.147,1008.7,11.04,-999.0,yes,yes,no,300234066214670,BD2VHI,AOML,UNKNOWN,North
2021-07-27T03:00:00Z,1627354800,2021,3,0,208.125,208.125,62.528,-6.051,1006.6,10.95,-999.0,yes,yes,no,300234066214670,BD2VHI,AOML,UNKNOWN,North
2021-07-27T06:00:00Z,1627365600,2021,6,0,208.25,208.25,62.492,-6.021,1005.6,11.03,-999.0,yes,yes,no,300234066214670,BD2VHI,AOML,UNKNOWN,North
2021-07-27T09:00:00Z,1627376400,2021,9,0,208.375,208.375,62.498,-6.08,1005.7,10.9,-999.0,yes,yes,no,300234066214670,BD2VHI,AOML,UNKNOWN,North
2021-07-27T12:00:00Z,1627387200,2021,12,0,208.5,208.5,62.509,-6.078,1005.5,11.09,-999.0,yes,yes,no,300234066214670,BD2VHI,AOML,UNKNOWN,North